This is the latest recevied weather packets stored in our database for station/object OE2ATN. If no packets are shown the sender has not sent any weather packets the latest 10 day(s).
| Time | Temp. | Humidity | Pressure | Rain* | Wind** | Luminosity | Snow |
|---|---|---|---|---|---|---|---|
| 1777381667 | 19.44° C | 47% | 1022.6 hPa | 0 mm | - | - | - |
| 1777381366 | 19.44° C | 46% | 1022.7 hPa | 0 mm | - | - | - |
| 1777381067 | 18.89° C | 49% | 1022.7 hPa | 0 mm | - | - | - |
| 1777380766 | 19.44° C | 48% | 1022.7 hPa | 0 mm | - | - | - |
| 1777380466 | 19.44° C | 46% | 1022.6 hPa | 0 mm | - | - | - |
| 1777380167 | 19.44° C | 48% | 1022.6 hPa | 0 mm | - | - | - |
| 1777379867 | 19.44° C | 45% | 1022.6 hPa | 0 mm | - | - | - |
| 1777379566 | 19.44° C | 44% | 1022.6 hPa | 0 mm | - | - | - |
| 1777379266 | 19.44° C | 49% | 1022.6 hPa | 0 mm | - | - | - |
| 1777378966 | 20° C | 45% | 1022.5 hPa | 0 mm | - | - | - |
| 1777378666 | 20° C | 44% | 1022.7 hPa | 0 mm | - | - | - |
| 1777378366 | 20° C | 44% | 1022.7 hPa | 0 mm | - | - | - |
| 1777378066 | 20° C | 45% | 1022.7 hPa | 0 mm | - | - | - |
| 1777377765 | 19.44° C | 46% | 1022.7 hPa | 0 mm | - | - | - |
| 1777377466 | 19.44° C | 47% | 1022.8 hPa | 0 mm | - | - | - |
| 1777377165 | 19.44° C | 49% | 1022.8 hPa | 0 mm | - | - | - |
| 1777376865 | 18.89° C | 48% | 1022.8 hPa | 0 mm | - | - | - |
| 1777376566 | 18.89° C | 43% | 1022.9 hPa | 0 mm | - | - | - |
| 1777376265 | 18.89° C | 44% | 1022.9 hPa | 0 mm | - | - | - |
| 1777375965 | 18.89° C | 44% | 1023 hPa | 0 mm | - | - | - |
| 1777375665 | 18.89° C | 50% | 1023 hPa | 0 mm | - | - | - |
| 1777375365 | 18.89° C | 47% | 1023.1 hPa | 0 mm | - | - | - |
| 1777375064 | 18.33° C | 49% | 1023.2 hPa | 0 mm | - | - | - |
| 1777374765 | 18.33° C | 48% | 1023.3 hPa | 0 mm | - | - | - |
| 1777374465 | 17.78° C | 51% | 1023.3 hPa | 0 mm | - | - | - |
* Rain latest hour (hover to see other rain measurements)
** Current wind speed in m/s (hover to see current wind gust speed)